Tracking 34348 objects as of 9-Jun-2026
HD Live streaming from Space Station
objects crossing your sky now

STARLINK-37518

Track STARLINK-37518 now!
10-day predictions
STARLINK-37518 is classified as:


NORAD ID: 69259
Int'l Code: 2026-117X
Perigee: 298.4 km
Apogee: 299.3 km
Inclination: 53.2 °
Period: 90.4 minutes
Semi major axis: 6669 km
RCS: Unknown
Launch date: May 29, 2026
Source: United States (US)
Launch site: AIR FORCE EASTERN TEST RANGE (AFETR)
Your satellite tracking list
Your tracking list is empty




NASA's NSSDC Master Catalog

Two Line Element Set (TLE):
1 69259U 26117X   26160.16670139 -.01919563  10262-2 -51798-2 0  9997
2 69259  53.1548 283.2509 0000657  65.1909 282.3172 15.93788136  2880
Source of the keplerian elements: AFSPC